This is the latest recevied weather packets stored in our database for station/object NY3Q. If no packets are shown the sender has not sent any weather packets the latest 10 day(s).
| Time | Temp. | Humidity | Pressure | Rain* | Wind** | Luminosity | Snow |
|---|---|---|---|---|---|---|---|
| 1777558569 | 26.11° C | 75% | 1011.3 hPa | 0 mm | - | 278 W/m² | - |
| 1777558265 | 26.11° C | 76% | 1011.1 hPa | 0 mm | - | 191 W/m² | - |
| 1777557961 | 25.56° C | 77% | 1011.3 hPa | 0 mm | - | 236 W/m² | - |
| 1777557658 | 25.56° C | 77% | 1011.2 hPa | 0 mm | - | 251 W/m² | - |
| 1777557354 | 25.56° C | 77% | 1011 hPa | 0 mm | - | 177 W/m² | - |
| 1777557051 | 25.56° C | 78% | 1011.1 hPa | 0 mm | - | 177 W/m² | - |
| 1777556746 | 25.56° C | 79% | 1010.9 hPa | 0 mm | - | 223 W/m² | - |
| 1777556444 | 25° C | 80% | 1010.9 hPa | 0 mm | - | 209 W/m² | - |
| 1777556143 | 25° C | 80% | 1010.8 hPa | 0 mm | - | 167 W/m² | - |
| 1777555839 | 25° C | 81% | 1010.9 hPa | 0 mm | - | 141 W/m² | - |
| 1777555535 | 24.44° C | 81% | 1010.8 hPa | 0 mm | - | 142 W/m² | - |
| 1777555232 | 24.44° C | 82% | 1010.9 hPa | 0 mm | - | 152 W/m² | - |
| 1777554928 | 23.89° C | 82% | 1010.7 hPa | 0 mm | - | 133 W/m² | - |
| 1777554626 | 23.89° C | 82% | 1011.3 hPa | 0 mm | - | 112 W/m² | - |
| 1777554322 | 23.89° C | 83% | 1011.2 hPa | 0 mm | - | 102 W/m² | - |
| 1777554019 | 23.89° C | 83% | 1011.7 hPa | 0 mm | - | 85 W/m² | - |
| 1777553715 | 23.89° C | 83% | 1011.3 hPa | 0 mm | - | 76 W/m² | - |
| 1777553412 | 23.89° C | 83% | 1011.5 hPa | 0 mm | - | 91 W/m² | - |
| 1777553109 | 23.89° C | 83% | 1011.3 hPa | 0 mm | - | 95 W/m² | - |
| 1777552809 | 23.33° C | 84% | 1011 hPa | 0 mm | - | 100 W/m² | - |
| 1777552505 | 23.33° C | 84% | 1011.4 hPa | 0 mm | - | 87 W/m² | - |
| 1777552201 | 23.33° C | 84% | 1010.7 hPa | 0 mm | - | 62 W/m² | - |
| 1777551898 | 23.33° C | 84% | 1010.9 hPa | 0 mm | - | 41 W/m² | - |
| 1777551595 | 23.33° C | 84% | 1011.1 hPa | 0 mm | - | 34 W/m² | - |
| 1777551293 | 23.33° C | 84% | 1010.9 hPa | 0 mm | - | 36 W/m² | - |
* Rain latest hour (hover to see other rain measurements)
** Current wind speed in m/s (hover to see current wind gust speed)